Terminal Aerodrome Forecast
Issued by NWS

Home | Current Version | Previous Version | Graphics & Text | Print | Product List | Glossary On
Versions: 1 2 3 4 5 6 7 8 9 10 11 12 13 14 15 16 17 18 19 20 21 22 23 24 25 26 27 28 29 30 31 32 33 34 35 36 37 38 39 40 41 42 43 44 45 46 47
352
FTUS43 KLOT 100530
TAFGYY
TAF
KGYY 100530Z 1006/1106 29012G18KT 6SM -SN BKN025 BKN060
      TEMPO 1006/1008 5SM -SN
     FM100800 31012G18KT P6SM VCSH FEW030 BKN040 OVC060
     FM101300 30011G15KT P6SM SCT020 BKN250
     FM110100 32008KT P6SM SCT150=

USA.gov is the U.S. government's official web portal to all federal, state and local government web resources and services.